Airfield :
LOGIN :

Register | Disclaimer

   EN    FR    IT 

 










Legend :    VFR   Marginal VFR   IFR   Intensive IFR   Very Intensive IFR
Visi :
Ceiling :
>= 8 km
>= 3000ft
5 to 8 km
1000 to 3000 ft
1500m to 5 km
500 to 1000 ft
800 to 1500m
200 to 500 ft
< 800m
< 200 ft
Symbols :   Thunderstorms  Fog  Heavy snow  Heavy precipitations  Wind > 20 kt
SIGMETs :     Misc.  Thunderstorms  Icing  Turbulence  Mountain Waves  Volcanic Ashes







- Airport Elevation : 102 ft
- IATA code : EXT
- Download approach charts


EGTE - Exeter

CURRENT METAR :
  • 192320Z VRB03KT 9999 FEW020 09/08 Q1012

EXPIRED METARs :
  • 192250Z 31004KT 280V340 9999 FEW025 10/09 Q1012
  • 192220Z 30004KT 260V330 9999 FEW025 09/08 Q1012
  • 192150Z 30004KT 270V330 9999 FEW030 10/09 Q1012
  • 192120Z 31004KT 280V340 9999 FEW030 11/09 Q1012

TAF TAF EGTE
Valid from the 20 at 00:00 until the 20 at 04:00 UTC


192256Z 2000/2004 31004KT 9999 FEW025
TEMPO 2000/2004 3000 BR BKN004
PROB30
TEMPO 2000/2004 0600 FG BKN001
No reported NOTAMs for that airfield.



MET'MAP, your aeronautical weather chart ! - Copyright ORBIFLY December 2007 - Disclaimer

ORBIFLY MET'MAP TEAM :

Programming & Development : Alexandra Zaïnal
Concept & Development : Baudouin d'Aumeries
Co-Development & Prog : Marc-Olivier Méhu
Technical & hardware support : Manuel Goepfert

Contact : metmap@orbifly.com




SOURCES & CREDITS :

   NOAA